This demonstration page uses our WeatherBlox Daily Observations layout. Learn more.

Hourly Observations for November 15, 2019

Temp ( °F °C ) Dew Point ( °F °C ) Humidity (%) Winds ( mph kmh ) Pressure ( in mb ) Visibility ( mi km ) Precip ( " mm )
12:15 am 00:15 Clear 37 2.8 30 -1 76 76 SW 9 15 30.36 1028 10 16.0934 0 0
12:35 am 00:35 Clear 37 2.5 30 -1.1 77 77 SW 9 15 30.35 1028 10 16.0934 0 0
12:55 am 00:55 Clear 37 2.5 30 -1.1 77 77 SW 9 15 30.35 1028 10 16.0934 0 0
1:15 am 01:15 Clear 36 2.3 30 -1.2 78 78 SW 10 17 30.35 1028 10 16.0934 0 0
1:35 am 01:35 Clear 36 2.3 30 -1.2 78 78 SW 8 13 30.34 1028 10 16.0934 0 0
1:55 am 01:55 Clear 36 2.4 30 -1.2 77 77 SSW 8 13 30.34 1028 10 16.0934 0 0
2:15 am 02:15 Clear 35 1.7 29 -1.6 79 79 SSW 7 11 30.35 1028 10 16.0934 0 0
2:35 am 02:35 Clear 34 1.1 29 -1.7 82 82 SW 8 13 30.36 1028 10 16.0934 0 0
2:55 am 02:55 Clear 34 1.3 29 -1.6 81 81 SSW 8 13 30.34 1028 10 16.0934 0 0
3:15 am 03:15 Clear 33 0.7 28 -2 82 82 SSW 7 11 30.35 1028 10 16.0934 0 0
3:35 am 03:35 Clear 34 0.9 28 -2 81 81 SSW 7 11 30.34 1027 10 16.0934 0 0
3:55 am 03:55 Clear 34 1 29 -1.8 82 82 SSW 8 13 30.34 1027 10 16.0934 0 0
4:15 am 04:15 Clear 33 0.6 28 -2 83 83 SSW 8 13 30.33 1027 10 16.0934 0 0
4:35 am 04:35 Clear 34 1.2 29 -1.7 81 81 S 9 15 30.32 1027 10 16.0934 0 0
4:55 am 04:55 Clear 34 1.2 29 -1.7 81 81 S 7 11 30.31 1027 10 16.0934 0 0
5:15 am 05:15 Clear 30 -1.3 26 -3.5 85 85 S 3 6 30.34 1027 10 16.0934 0 0
5:35 am 05:35 Clear 30 -1.1 27 -3 87 87 S 5 7 30.34 1027 10 16.0934 0 0
5:55 am 05:55 Clear 31 -0.3 28 -2.2 87 87 S 6 9 30.33 1027 10 16.0934 0 0
6:15 am 06:15 Clear 30 -1 27 -2.8 88 88 S 5 7 30.32 1027 10 16.0934 0 0
6:35 am 06:35 Clear 30 -1 27 -2.6 89 89 S 7 11 30.32 1027 10 16.0934 0 0
6:55 am 06:55 Clear 30 -1 27 -2.7 88 88 S 8 13 30.31 1026 10 16.0934 0 0
7:15 am 07:15 Clear 29 -1.5 27 -3 90 90 SSE 6 9 30.31 1026 10 16.0934 0 0
7:35 am 07:35 Sunny 29 -1.4 27 -2.7 91 91 S 5 7 30.31 1026 10 16.0934 0 0
7:55 am 07:55 Sunny 32 -0.1 29 -1.8 88 88 S 6 9 30.3 1026 10 16.0934 0 0
8:15 am 08:15 Sunny 32 0 28 -2 87 87 S 5 7 30.3 1026 10 16.0934 0 0
8:35 am 08:35 Sunny 35 1.4 31 -0.8 85 85 S 7 11 30.28 1025 10 16.0934 0 0
8:55 am 08:55 Sunny 37 2.5 31 -0.4 81 81 S 8 13 30.27 1025 10 16.0934 0 0
9:15 am 09:15 Sunny 39 3.7 32 0 77 77 S 7 11 30.26 1025 10 16.0934 0 0
9:35 am 09:35 Sunny 41 5.1 33 0.3 71 71 S 12 19 30.25 1024 10 16.0934 0 0
9:55 am 09:55 Sunny 44 6.8 33 0.6 65 65 S 12 19 30.23 1024 10 16.0934 0 0
10:15 am 10:15 Sunny 46 7.8 33 0.8 62 62 SSW 12 19 30.22 1023 10 16.0934 0 0
10:35 am 10:35 Sunny 48 9 34 1.3 59 59 S 14 22 30.2 1023 10 16.0934 0 0
10:55 am 10:55 Sunny 50 10.2 35 1.4 55 55 SSW 15 24 30.18 1022 10 16.0934 0 0
11:15 am 11:15 Sunny 53 11.4 34 1.3 50 50 SSW 20 31 30.16 1021 10 16.0934 0 0
11:35 am 11:35 Sunny 54 12.1 35 1.5 49 49 S 17 28 30.14 1021 10 16.0934 0 0
11:55 am 11:55 Sunny 55 12.6 35 1.6 47 47 S 17 28 30.13 1020 10 16.0934 0 0
12:15 pm 12:15 Sunny 56 13.6 35 1.7 45 45 S 16 26 30.1 1019 10 16.0934 0 0
12:35 pm 12:35 Sunny 58 14.2 35 1.7 43 43 S 20 31 30.09 1019 10 16.0934 0 0
12:55 pm 12:55 Sunny 60 15.3 36 2 41 41 S 21 33 30.07 1018 10 16.0934 0 0
1:15 pm 13:15 Sunny 60 15.7 35 1.7 39 39 S 20 31 30.05 1018 10 16.0934 0 0
1:35 pm 13:35 Sunny 61 16.2 35 1.7 38 38 S 20 31 30.04 1017 10 16.0934 0 0
1:55 pm 13:55 Sunny 62 16.5 35 1.7 37 37 S 20 31 30.03 1017 10 16.0934 0 0
2:15 pm 14:15 Sunny 62 16.9 35 1.8 36 36 S 23 37 30.02 1017 10 16.0934 0 0
2:35 pm 14:35 Sunny 62 16.5 35 1.8 37 37 S 17 28 30.03 1017 10 16.0934 0 0
2:55 pm 14:55 Sunny 61 16.3 36 2 38 38 S 16 26 30.03 1017 10 16.0934 0 0
3:15 pm 15:15 Sunny 62 16.5 35 1.9 38 38 S 15 24 30.02 1016 10 16.0934 0 0
3:35 pm 15:35 Sunny 62 16.5 35 1.7 37 37 S 16 26 30.02 1016 10 16.0934 0 0
3:55 pm 15:55 Sunny 62 16.4 35 1.9 38 38 S 17 28 30.02 1016 10 16.0934 0 0
4:15 pm 16:15 Sunny 60 15.4 35 1.8 40 40 S 12 19 30.03 1017 10 16.0934 0 0
4:35 pm 16:35 Sunny 59 14.9 35 1.6 41 41 S 10 17 30.03 1017 10 16.0934 0 0
4:55 pm 16:55 Sunny 57 13.8 35 1.5 43 43 S 9 15 30.04 1017 10 16.0934 0 0
5:15 pm 17:15 Sunny 54 12.2 34 1.2 47 47 S 7 11 30.04 1017 10 16.0934 0 0
5:35 pm 17:35 Clear 51 10.7 33 0.8 51 51 SSE 7 11 30.07 1018 10 16.0934 0 0
5:55 pm 17:55 Clear 50 10.1 33 0.7 52 52 SSE 9 15 30.07 1018 10 16.0934 0 0
6:15 pm 18:15 Clear 49 9.5 33 0.4 53 53 SSE 8 13 30.08 1019 10 16.0934 0 0
6:35 pm 18:35 Clear 46 7.9 32 0 58 58 SSE 8 13 30.09 1019 10 16.0934 0 0
6:55 pm 18:55 Clear 48 8.9 33 0.4 56 56 SSE 8 13 30.08 1019 10 16.0934 0 0
7:15 pm 19:15 Clear 49 9.2 33 0.3 54 54 S 10 17 30.08 1019 10 16.0934 0 0
7:35 pm 19:35 Clear 48 8.9 33 0.3 55 55 S 9 15 30.08 1019 10 16.0934 0 0
7:55 pm 19:55 Clear 48 9 32 0.1 54 54 SSE 10 17 30.08 1019 10 16.0934 0 0
8:15 pm 20:15 Clear 49 9.2 32 0.2 54 54 SSE 14 22 30.08 1019 10 16.0934 0 0
8:35 pm 20:35 Clear 48 8.8 33 0.3 56 56 SSE 12 19 30.08 1019 10 16.0934 0 0
8:55 pm 20:55 Clear 47 8.4 33 0.3 57 57 S 13 20 30.09 1019 10 16.0934 0 0
9:15 pm 21:15 Clear 47 8.1 33 0.3 58 58 S 14 22 30.09 1019 10 16.0934 0 0
9:35 pm 21:35 Clear 46 7.7 32 0.2 59 59 S 14 22 30.09 1019 10 16.0934 0 0
9:55 pm 21:55 Clear 45 7.4 32 0.2 61 61 S 13 20 30.1 1019 10 16.0934 0 0
10:15 pm 22:15 Clear 44 6.9 33 0.3 63 63 S 14 22 30.1 1019 10 16.0934 0 0
10:35 pm 22:35 Clear 44 6.5 33 0.3 65 65 S 13 20 30.09 1019 10 16.0934 0 0
10:55 pm 22:55 Clear 43 6 33 0.3 67 67 S 12 19 30.1 1019 10 16.0934 0 0
11:15 pm 23:15 Clear 42 5.3 32 0 69 69 SSE 9 15 30.11 1019 10 16.0934 0 0
11:35 pm 23:35 Clear 41 5.1 32 0 70 70 S 10 17 30.1 1019 10 16.0934 0 0
11:55 pm 23:55 Clear 40 4.7 32 0 72 72 S 10 17 30.09 1019 10 16.0934 0 0

Powered by AerisWeather